Wind_Speed
26 25 23 21 21 21 21 23 25 28 29 31 32 33 32 31 30 29 28 28 29 29 29 30 30 30 31 32 32 32 33 34 36 38 40 41 42 43 44 46 47 49 50
28 27 25 23 22 22 23 25 27 29 32 34 35 35 35 34 33 31 27 27 28 28 28 29 30 31 32 33 35 36 36 38 39 40 42 43 44 46 47 48 49 51 52
29 28 28 26 25 24 26 27 30 32 35 36 37 38 36 34 34 29 27 27 27 28 29 29 29 32 34 35 37 38 39 41 42 42 44 45 46 47 48 50 51 53 55
31 30 30 28 28 27 29 31 33 36 37 37 38 40 38 37 35 31 29 28 28 28 29 30 33 34 36 38 39 41 43 44 45 46 47 48 49 50 51 52 54 56 58
33 32 32 31 31 31 32 34 36 38 38 39 40 41 40 39 35 32 31 30 30 31 32 33 35 37 39 41 43 45 47 48 49 50 51 52 53 55 55 56 57 59 61
35 34 34 34 34 34 35 38 39 41 41 43 43 42 41 38 37 36 35 33 34 35 35 37 39 41 43 46 48 49 50 51 53 54 55 57 58 59 60 61 61 62 63
36 36 35 36 36 36 38 40 41 42 43 43 43 43 42 40 39 39 38 37 38 39 40 42 44 46 48 50 52 53 54 56 57 59 60 62 63 64 65 65 65 65 64
35 35 35 36 37 38 39 39 40 41 42 41 42 41 41 40 39 39 40 41 42 44 46 47 49 51 53 55 56 57 59 60 62 63 64 65 66 67 67 67 67 65 64
33 33 34 34 35 35 36 37 39 39 40 41 42 42 43 42 42 43 43 44 47 49 51 52 54 55 57 59 60 61 62 63 64 65 66 67 67 67 67 67 66 66 64
31 31 31 31 32 33 34 36 38 39 41 42 43 44 44 44 45 46 48 49 52 54 55 57 58 59 61 62 63 64 64 65 66 66 66 66 65 65 65 65 65 66 65
30 30 30 31 33 34 36 37 40 41 43 44 45 47 47 48 49 50 52 54 56 58 59 59 60 61 61 62 63 64 64 64 65 65 65 64 64 65 65 64 64 64 64
32 32 32 33 35 37 38 40 42 44 45 47 49 51 52 53 54 55 56 58 59 60 60 60 60 61 61 62 63 63 63 63 64 64 63 64 63 63 63 62 62 63 63
34 34 35 37 38 40 42 43 45 47 49 50 52 54 55 57 58 59 59 60 60 60 60 60 60 60 61 61 62 62 62 62 62 62 61 61 60 60 60 60 60 60 60
36 37 38 39 41 42 44 46 48 50 52 54 55 57 58 59 60 60 60 60 60 59 59 59 59 59 59 59 59 59 60 59 59 58 58 58 58 58 58 58 58 58 57
39 39 40 42 44 46 48 50 51 52 55 57 58 59 60 60 60 59 59 59 58 58 58 57 57 57 57 57 57 57 56 56 56 56 56 56 56 56 56 56 55 54 50
41 42 43 45 47 49 51 52 54 56 57 58 58 58 58 58 58 58 58 57 57 56 55 54 54 54 54 54 54 54 53 53 53 53 54 54 54 54 53 51 49 45 40
42 44 46 48 50 52 54 56 56 57 57 57 57 56 56 56 56 56 55 54 53 52 52 51 51 51 50 51 51 51 51 51 51 51 50 50 50 47 44 42 38 34 30
43 45 47 49 51 53 54 55 55 55 55 55 55 54 54 53 53 51 50 49 49 48 48 48 48 49 49 49 49 49 49 49 48 47 46 44 41 39 35 31 28 26 23
44 46 47 49 51 52 52 53 53 53 53 53 52 51 50 49 48 47 46 46 45 45 45 46 46 46 46 46 46 46 46 45 44 42 39 35 32 29 25 22 20 19 19
44 45 47 49 49 50 51 51 51 50 49 48 47 46 45 45 44 44 43 43 43 43 44 44 44 44 44 44 43 42 40 39 37 34 30 27 23 20 17 16 15 15 17
43 45 46 46 47 47 47 47 47 46 45 44 43 42 41 41 41 41 42 42 42 43 43 43 42 41 40 39 37 35 32 30 28 25 22 20 16 14 12 12 13 14 15
41 42 43 43 43 43 42 42 41 40 40 39 38 38 39 39 40 40 40 41 41 41 40 39 37 35 34 31 29 26 24 22 20 18 16 13 11 9 10 10 11 13 14
37 38 38 38 37 37 37 36 36 35 35 35 36 36 37 38 38 39 39 39 38 37 35 33 30 28 26 23 21 19 18 16 15 12 10 8 7 8 9 10 11 13 14
32 32 32 32 32 31 31 31 31 31 32 33 35 36 37 38 38 37 36 35 32 30 28 26 24 22 20 18 17 15 13 11 8 6 5 5 6 7 8 9 11 13 14
26 26 26 26 26 26 26 28 29 31 32 34 35 36 36 35 34 32 30 28 26 23 22 20 19 18 16 15 13 11 8 5 3 4 5 6 6 7 9 10 12 13 15
21 21 20 21 22 23 25 27 29 31 33 34 34 34 32 30 28 26 24 21 20 18 17 16 15 14 12 10 8 5 3 4 5 6 7 7 7 8 9 11 12 14 15
Wind_Direction
260 261 263 269 277 285 291 296 298 300 298 300 299 299 296 295 295 288 286 287 285 283 280 282 284 288 290 292 294 293 294 295 296 295 294 293 291 290 290 289 287 286 285
259 260 264 269 276 282 287 291 293 295 295 295 295 293 296 294 296 295 295 295 294 292 287 288 288 291 297 298 298 297 297 297 297 296 294 293 292 291 290 290 289 287 287
260 260 263 267 271 277 282 286 290 292 292 292 289 288 291 294 295 297 303 302 299 297 293 292 294 297 300 301 300 299 299 299 298 297 295 294 293 292 291 291 290 289 287
259 260 262 264 268 274 279 282 286 288 288 288 286 288 291 295 299 302 306 305 304 301 298 296 298 299 300 302 302 302 301 300 298 297 296 295 294 293 293 292 291 290 289
258 258 260 263 268 274 279 282 285 286 286 287 286 287 291 295 303 308 308 308 307 304 301 301 301 301 302 304 304 303 302 301 299 298 296 296 295 294 293 293 292 291 290
258 259 262 265 270 275 278 281 283 285 285 286 285 286 290 298 305 310 307 304 304 303 303 303 303 305 304 304 304 302 301 300 299 297 296 296 295 295 294 294 292 291 290
259 262 264 266 270 273 276 277 279 281 283 284 286 289 293 302 305 308 306 304 304 303 305 306 305 305 304 303 302 301 299 298 297 296 296 296 295 295 294 293 292 292 291
258 261 263 266 269 272 274 274 276 278 281 285 290 294 302 306 307 306 306 304 304 303 303 304 303 302 302 301 299 298 297 296 295 295 295 295 295 294 294 294 293 292 292
258 261 264 266 267 269 271 273 276 280 283 288 295 300 302 304 305 305 304 304 304 303 302 300 300 299 299 298 297 296 295 295 294 294 294 294 294 294 294 294 294 293 292
259 262 264 265 266 268 271 274 279 285 288 292 296 299 301 303 304 304 304 303 303 303 301 299 299 298 297 296 295 295 294 294 294 295 295 294 294 295 295 295 295 295 294
259 261 265 267 270 272 275 279 283 287 291 294 296 297 297 299 301 301 302 302 302 302 300 299 298 297 295 294 294 294 293 293 293 294 294 294 295 295 296 296 296 295 295
263 266 269 272 275 277 280 283 285 289 291 292 294 296 296 298 299 300 300 301 301 301 300 298 297 296 295 294 293 293 293 293 293 293 294 295 296 296 296 296 296 296 296
269 271 274 276 279 281 283 285 287 289 291 293 294 295 297 298 298 299 300 300 300 299 298 297 296 295 294 293 293 293 293 293 294 295 295 296 297 297 297 297 297 297 297
271 274 276 279 282 284 286 287 288 290 291 293 295 297 298 299 299 299 299 299 299 298 297 296 295 294 294 293 293 294 294 294 295 296 297 297 297 297 297 297 297 297 298
271 274 279 282 284 285 287 288 290 292 293 295 297 298 299 299 299 299 299 298 297 297 296 296 295 294 293 293 294 295 295 296 297 297 297 297 297 298 298 298 298 299 300
273 277 280 283 285 287 289 292 294 296 297 298 298 298 298 298 298 298 297 297 297 296 296 295 294 294 294 294 295 296 296 297 297 297 298 298 298 299 299 300 302 303 303
276 280 283 286 289 291 293 295 296 296 296 297 297 297 297 297 297 297 296 296 296 295 295 295 295 295 296 296 297 297 297 297 297 298 298 299 300 300 302 303 304 305 306
282 284 287 289 291 292 294 295 295 296 296 296 296 296 296 297 297 296 296 296 296 296 296 296 296 297 297 297 297 297 297 297 298 298 299 301 302 303 304 304 305 307 309
284 286 287 289 291 292 293 294 295 295 296 296 296 296 297 297 297 297 296 296 296 296 297 297 297 297 297 297 297 297 297 298 299 300 302 304 305 305 306 306 307 310 313
283 285 287 289 291 292 293 294 295 295 296 296 296 296 296 297 297 297 297 297 297 297 298 298 298 297 297 297 298 298 299 300 302 304 306 307 308 308 309 311 314 316 319
284 286 288 290 291 292 293 294 295 295 296 296 297 297 297 297 297 297 298 298 298 298 298 298 298 298 298 299 299 301 302 303 305 307 309 311 314 316 318 321 325 328 330
284 286 288 290 291 292 293 294 295 295 296 297 297 297 297 298 298 299 299 299 300 300 300 300 300 300 301 302 304 305 306 307 308 310 313 316 323 328 332 337 341 344 345
286 288 289 291 292 293 294 295 296 297 298 298 299 300 300 301 301 301 302 302 302 302 302 302 302 303 304 306 308 309 309 310 311 314 320 331 341 345 349 355 357 357 357
287 289 291 292 293 295 296 297 299 300 301 302 303 303 303 304 304 304 304 304 304 304 304 305 305 306 307 309 311 313 313 313 316 328 345 0 4 5 9 11 9 9 11
290 292 294 296 298 300 301 303 304 305 306 306 306 306 306 307 306 306 306 306 306 306 307 308 308 309 310 312 316 320 324 336 5 32 35 31 29 27 25 22 22 22 23
294 297 300 302 305 307 308 309 310 310 310 310 310 310 310 309 309 309 309 309 310 311 312 314 314 314 316 319 327 340 20 64 70 62 56 51 47 41 38 35 34 32 30
Height
5859 5860 5862 5863 5864 5864 5864 5862 5860 5857 5855 5852 5848 5845 5841 5839 5838 5835 5833 5832 5830 5828 5827 5826 5825 5824 5823 5822 5820 5819 5817 5816 5814 5811 5808 5805 5803 5801 5798 5795 5792 5789 5787
5852 5854 5856 5857 5858 5858 5857 5856 5854 5852 5849 5846 5843 5839 5835 5832 5829 5826 5824 5824 5823 5821 5819 5819 5818 5816 5815 5813 5812 5810 5808 5807 5805 5802 5799 5796 5794 5791 5787 5784 5781 5777 5774
5846 5848 5849 5850 5851 5851 5851 5849 5848 5845 5842 5839 5836 5832 5828 5824 5822 5820 5818 5818 5817 5815 5813 5811 5810 5809 5808 5806 5804 5801 5799 5797 5795 5792 5789 5786 5783 5780 5777 5773 5768 5764 5761
5839 5841 5842 5843 5844 5844 5843 5842 5841 5838 5836 5832 5828 5824 5820 5816 5815 5812 5812 5811 5809 5808 5806 5804 5803 5801 5799 5797 5795 5792 5789 5787 5784 5781 5777 5774 5771 5768 5765 5762 5756 5751 5747
5832 5834 5835 5836 5837 5837 5836 5834 5833 5831 5828 5824 5821 5818 5814 5810 5808 5806 5804 5804 5803 5801 5799 5797 5795 5793 5790 5788 5785 5782 5779 5776 5772 5769 5765 5762 5758 5754 5751 5748 5744 5738 5731
5825 5827 5828 5829 5829 5829 5828 5827 5825 5823 5820 5817 5814 5810 5806 5802 5801 5799 5798 5796 5796 5794 5792 5789 5786 5784 5781 5778 5775 5771 5768 5764 5760 5756 5752 5748 5744 5739 5735 5732 5728 5724 5718
5818 5819 5821 5822 5822 5822 5821 5819 5817 5815 5813 5810 5805 5801 5799 5796 5793 5792 5791 5789 5788 5785 5783 5780 5777 5775 5771 5768 5764 5760 5756 5752 5747 5742 5738 5733 5728 5723 5718 5714 5710 5706 5702
5811 5812 5813 5814 5814 5814 5813 5812 5810 5807 5804 5801 5798 5794 5791 5788 5786 5785 5784 5782 5779 5777 5774 5771 5768 5764 5760 5756 5751 5747 5743 5738 5733 5728 5723 5717 5711 5706 5701 5696 5692 5688 5685
5804 5805 5806 5806 5807 5806 5805 5804 5802 5799 5795 5793 5790 5787 5784 5782 5780 5777 5775 5773 5770 5767 5763 5760 5756 5752 5747 5743 5738 5733 5728 5723 5718 5712 5707 5701 5695 5689 5683 5678 5672 5669 5666
5798 5799 5799 5799 5799 5799 5798 5795 5794 5791 5788 5785 5782 5779 5776 5774 5772 5769 5766 5762 5759 5755 5751 5747 5742 5738 5733 5728 5723 5718 5713 5708 5702 5697 5691 5685 5679 5673 5666 5661 5654 5648 5645
5791 5792 5792 5792 5791 5790 5789 5787 5785 5783 5780 5777 5774 5771 5768 5765 5762 5759 5755 5751 5747 5742 5738 5733 5728 5723 5718 5713 5708 5703 5698 5692 5687 5681 5676 5670 5664 5657 5650 5644 5638 5631 5626
5785 5785 5785 5784 5783 5782 5780 5779 5777 5774 5771 5768 5765 5762 5758 5755 5751 5747 5743 5738 5733 5728 5723 5718 5714 5708 5704 5698 5693 5688 5683 5677 5672 5666 5660 5654 5648 5641 5635 5628 5622 5615 5608
5777 5777 5777 5776 5775 5773 5772 5770 5767 5764 5761 5758 5754 5751 5747 5743 5738 5734 5729 5724 5719 5714 5709 5704 5699 5694 5688 5683 5678 5673 5667 5662 5657 5651 5645 5639 5633 5626 5619 5613 5606 5600 5593
5768 5768 5768 5767 5765 5764 5762 5760 5757 5754 5750 5747 5743 5739 5734 5730 5725 5720 5715 5710 5704 5699 5694 5689 5684 5679 5674 5668 5663 5658 5653 5648 5642 5636 5630 5624 5618 5612 5606 5599 5592 5586 5579
5759 5759 5758 5757 5755 5753 5751 5748 5745 5742 5738 5734 5730 5726 5721 5716 5711 5705 5700 5695 5690 5684 5679 5674 5669 5664 5659 5654 5649 5644 5639 5634 5628 5622 5616 5610 5604 5598 5592 5586 5579 5572 5566
5749 5748 5747 5746 5744 5742 5739 5736 5733 5729 5725 5721 5716 5712 5707 5702 5696 5691 5686 5681 5675 5670 5665 5660 5655 5650 5646 5641 5636 5631 5626 5620 5615 5609 5602 5596 5591 5585 5579 5572 5566 5560 5555
5739 5738 5736 5734 5732 5729 5726 5723 5719 5715 5711 5707 5702 5698 5693 5688 5682 5677 5672 5667 5661 5657 5652 5647 5642 5637 5633 5628 5623 5617 5612 5607 5602 5597 5591 5584 5578 5573 5567 5561 5555 5550 5546
5728 5726 5725 5722 5720 5717 5713 5710 5706 5701 5697 5693 5688 5683 5678 5673 5668 5663 5658 5653 5648 5644 5639 5635 5630 5625 5620 5615 5610 5605 5600 5595 5590 5585 5579 5574 5568 5563 5558 5553 5549 5544 5541
5717 5715 5713 5710 5708 5704 5701 5697 5692 5688 5683 5679 5674 5669 5664 5659 5655 5650 5645 5641 5636 5632 5627 5623 5618 5613 5608 5603 5598 5593 5588 5583 5578 5574 5569 5564 5559 5555 5551 5547 5544 5541 5537
5706 5704 5702 5699 5695 5692 5688 5684 5679 5675 5670 5665 5661 5656 5652 5647 5642 5638 5634 5629 5625 5620 5616 5611 5606 5602 5597 5592 5587 5582 5577 5573 5568 5564 5560 5556 5553 5549 5546 5543 5541 5538 5535
5696 5693 5690 5687 5684 5680 5676 5672 5667 5663 5658 5653 5649 5644 5640 5636 5631 5627 5622 5618 5614 5609 5605 5600 5595 5590 5586 5581 5577 5572 5568 5564 5561 5557 5554 5551 5548 5545 5543 5541 5538 5535 5532
5685 5683 5680 5676 5673 5669 5665 5661 5656 5652 5647 5643 5638 5634 5629 5625 5620 5616 5611 5607 5602 5598 5593 5588 5584 5580 5576 5572 5568 5565 5561 5558 5555 5552 5550 5548 5546 5544 5542 5539 5537 5534 5530
5676 5673 5670 5667 5663 5659 5655 5651 5646 5642 5638 5633 5628 5624 5619 5614 5610 5605 5600 5596 5591 5587 5583 5578 5575 5571 5568 5565 5562 5559 5556 5554 5551 5549 5547 5546 5544 5543 5541 5539 5536 5533 5530
5668 5665 5662 5658 5654 5650 5646 5642 5638 5633 5629 5624 5619 5614 5609 5604 5599 5594 5590 5586 5582 5578 5574 5571 5568 5565 5563 5560 5557 5555 5553 5551 5549 5548 5547 5545 5544 5543 5541 5539 5536 5533 5530
5660 5657 5654 5651 5647 5643 5639 5635 5630 5625 5620 5615 5610 5604 5599 5594 5590 5585 5581 5578 5574 5571 5568 5565 5563 5560 5558 5556 5553 5551 5550 5549 5548 5547 5547 5546 5545 5543 5542 5540 5537 5534 5531
5654 5651 5648 5645 5641 5637 5632 5628 5623 5617 5612 5606 5601 5595 5590 5586 5582 5578 5574 5571 5569 5566 5563 5561 5558 5556 5554 5552 5551 5549 5548 5548 5548 5548 5547 5547 5545 5544 5543 5541 5538 5536 5533